QPF
0.02 0.02 0.02 0.01 0.02 0.03 0.03 0.03 0.05 0.04 0.02 0.01 0.02 0.02 0.01 0.01 0.01 0.01 0.01 0.01 0.01 0.01 0.01 0.02 0.04 0.04 0.03 0.02 0.02 0.02 0.01 0.01 0.01 0.02 0.03 0.04 0.06 0.07 0.07 0.07 0.09 0.07 0.05 0.03
0.02 0.02 0.02 0.01 0.02 0.02 0.03 0.04 0.05 0.05 0.03 0.02 0.02 0.03 0.02 0.02 0.02 0.01 0.01 0.01 0.01 0.01 0.03 0.05 0.04 0.03 0.04 0.03 0.03 0.02 0.01 0.01 0.01 0.01 0.02 0.03 0.05 0.05 0.05 0.08 0.08 0.06 0.05 0.04
0.03 0.02 0.01 0.01 0.01 0.03 0.02 0.03 0.03 0.04 0.02 0.03 0.05 0.05 0.06 0.04 0.03 0.02 0.01 0.01 0.01 0.00 0.01 0.02 0.03 0.02 0.07 0.05 0.02 0.02 0.01 0.01 0.01 0.01 0.01 0.02 0.04 0.04 0.03 0.04 0.04 0.03 0.03 0.04
0.02 0.01 0.01 0.01 0.01 0.01 0.02 0.01 0.02 0.02 0.02 0.05 0.06 0.08 0.12 0.07 0.04 0.03 0.02 0.01 0.01 0.01 0.01 0.01 0.01 0.02 0.06 0.06 0.03 0.01 0.01 0.01 0.01 0.01 0.01 0.01 0.01 0.02 0.02 0.02 0.03 0.03 0.03 0.05
0.02 0.01 0.01 0.01 0.01 0.02 0.02 0.01 0.01 0.01 0.02 0.06 0.08 0.09 0.10 0.06 0.05 0.05 0.03 0.01 0.01 0.01 0.01 0.02 0.02 0.02 0.03 0.03 0.02 0.01 0.02 0.02 0.02 0.01 0.01 0.01 0.01 0.02 0.02 0.02 0.02 0.02 0.02 0.05
0.01 0.01 0.01 0.01 0.02 0.02 0.01 0.01 0.02 0.03 0.03 0.04 0.05 0.05 0.05 0.04 0.03 0.03 0.02 0.01 0.01 0.01 0.02 0.02 0.02 0.01 0.01 0.02 0.01 0.01 0.02 0.01 0.01 0.00 0.01 0.01 0.02 0.02 0.02 0.02 0.01 0.01 0.02 0.03
0.01 0.02 0.01 0.01 0.01 0.02 0.02 0.03 0.05 0.05 0.04 0.04 0.05 0.08 0.07 0.03 0.02 0.02 0.02 0.02 0.02 0.01 0.02 0.02 0.03 0.02 0.01 0.01 0.02 0.02 0.02 0.01 0.01 0.01 0.01 0.02 0.02 0.02 0.02 0.01 0.02 0.01 0.01 0.01
0.01 0.02 0.01 0.01 0.01 0.01 0.02 0.03 0.06 0.08 0.04 0.05 0.06 0.05 0.04 0.03 0.03 0.03 0.02 0.02 0.02 0.02 0.01 0.01 0.01 0.01 0.01 0.02 0.03 0.03 0.02 0.02 0.03 0.03 0.02 0.02 0.02 0.02 0.01 0.01 0.02 0.01 0.01 0.01
0.01 0.01 0.01 0.01 0.01 0.01 0.01 0.01 0.03 0.04 0.03 0.06 0.08 0.04 0.02 0.02 0.03 0.03 0.02 0.02 0.02 0.01 0.01 0.02 0.02 0.02 0.03 0.03 0.03 0.03 0.04 0.05 0.07 0.06 0.03 0.03 0.03 0.02 0.02 0.02 0.02 0.02 0.02 0.01
0.00 0.00 0.01 0.01 0.01 0.01 0.01 0.01 0.03 0.04 0.05 0.07 0.08 0.05 0.04 0.03 0.02 0.02 0.02 0.03 0.05 0.03 0.02 0.02 0.02 0.04 0.06 0.05 0.04 0.05 0.11 0.13 0.10 0.05 0.03 0.05 0.04 0.03 0.03 0.03 0.03 0.03 0.03 0.02
0.00 0.00 0.01 0.01 0.01 0.01 0.01 0.02 0.02 0.03 0.04 0.07 0.10 0.11 0.06 0.03 0.03 0.03 0.02 0.03 0.04 0.05 0.03 0.02 0.02 0.04 0.07 0.07 0.06 0.05 0.07 0.08 0.07 0.05 0.05 0.07 0.05 0.03 0.03 0.03 0.03 0.03 0.02 0.01
0.00 0.01 0.01 0.01 0.01 0.01 0.01 0.02 0.02 0.03 0.04 0.06 0.11 0.10 0.04 0.03 0.03 0.02 0.02 0.03 0.03 0.04 0.04 0.05 0.05 0.04 0.03 0.03 0.04 0.06 0.06 0.07 0.09 0.13 0.09 0.05 0.04 0.04 0.04 0.03 0.03 0.03 0.02 0.01
0.01 0.01 0.02 0.01 0.02 0.02 0.01 0.01 0.01 0.01 0.02 0.05 0.07 0.04 0.03 0.03 0.05 0.03 0.02 0.03 0.03 0.04 0.06 0.05 0.06 0.04 0.02 0.02 0.04 0.05 0.07 0.06 0.06 0.07 0.08 0.04 0.04 0.05 0.04 0.04 0.03 0.03 0.02 0.02
0.00 0.01 0.00 0.01 0.01 0.01 0.01 0.02 0.01 0.01 0.02 0.04 0.04 0.03 0.02 0.02 0.03 0.02 0.04 0.06 0.03 0.06 0.11 0.08 0.04 0.03 0.03 0.03 0.04 0.05 0.11 0.11 0.10 0.08 0.06 0.05 0.05 0.04 0.04 0.03 0.03 0.03 0.03 0.03
0.01 0.00 0.00 0.00 0.01 0.01 0.01 0.01 0.02 0.01 0.01 0.02 0.02 0.03 0.03 0.03 0.03 0.04 0.04 0.05 0.06 0.09 0.08 0.06 0.07 0.05 0.03 0.03 0.05 0.05 0.07 0.07 0.07 0.07 0.06 0.05 0.04 0.03 0.02 0.02 0.03 0.02 0.03 0.04
0.00 0.00 0.00 0.01 0.01 0.01 0.00 0.01 0.01 0.02 0.02 0.02 0.02 0.03 0.04 0.05 0.04 0.04 0.05 0.04 0.08 0.14 0.10 0.05 0.03 0.04 0.03 0.03 0.04 0.04 0.05 0.07 0.06 0.05 0.05 0.04 0.04 0.03 0.01 0.02 0.03 0.03 0.03 0.04
0.00 0.00 0.00 0.01 0.01 0.00 0.01 0.01 0.01 0.01 0.03 0.02 0.02 0.04 0.04 0.05 0.04 0.03 0.05 0.08 0.12 0.10 0.06 0.04 0.03 0.03 0.05 0.06 0.05 0.04 0.04 0.03 0.03 0.03 0.04 0.04 0.03 0.03 0.02 0.03 0.03 0.04 0.04 0.05
0.01 0.01 0.01 0.01 0.01 0.00 0.01 0.01 0.01 0.02 0.02 0.03 0.03 0.04 0.04 0.05 0.05 0.05 0.04 0.05 0.05 0.03 0.03 0.03 0.03 0.04 0.05 0.05 0.05 0.05 0.05 0.04 0.04 0.04 0.04 0.04 0.03 0.02 0.03 0.03 0.03 0.03 0.04 0.05
0.01 0.01 0.01 0.01 0.01 0.01 0.01 0.02 0.02 0.02 0.02 0.02 0.04 0.04 0.04 0.05 0.04 0.03 0.02 0.02 0.02 0.02 0.02 0.03 0.05 0.07 0.06 0.05 0.05 0.06 0.06 0.05 0.06 0.05 0.04 0.03 0.03 0.02 0.02 0.02 0.03 0.03 0.03 0.03
0.01 0.01 0.01 0.01 0.02 0.02 0.02 0.02 0.02 0.02 0.03 0.03 0.05 0.06 0.05 0.05 0.04 0.04 0.03 0.03 0.04 0.03 0.03 0.04 0.05 0.05 0.04 0.03 0.03 0.03 0.03 0.03 0.03 0.03 0.03 0.04 0.04 0.03 0.03 0.03 0.03 0.03 0.04 0.04
0.01 0.01 0.00 0.01 0.01 0.02 0.02 0.02 0.02 0.02 0.03 0.03 0.03 0.04 0.03 0.04 0.03 0.02 0.03 0.04 0.04 0.02 0.02 0.04 0.07 0.07 0.04 0.03 0.03 0.04 0.03 0.04 0.05 0.05 0.05 0.05 0.04 0.04 0.03 0.03 0.03 0.03 0.03 0.04
0.01 0.01 0.00 0.01 0.02 0.02 0.02 0.02 0.02 0.05 0.05 0.03 0.03 0.05 0.03 0.03 0.03 0.02 0.02 0.02 0.02 0.02 0.03 0.03 0.03 0.04 0.04 0.04 0.06 0.06 0.08 0.09 0.09 0.09 0.07 0.05 0.04 0.04 0.03 0.02 0.02 0.04 0.04 0.03
0.02 0.03 0.02 0.02 0.03 0.03 0.02 0.03 0.03 0.05 0.04 0.04 0.04 0.05 0.03 0.03 0.03 0.02 0.02 0.02 0.03 0.03 0.03 0.02 0.02 0.03 0.04 0.05 0.05 0.07 0.09 0.09 0.09 0.09 0.07 0.04 0.03 0.04 0.03 0.02 0.02 0.03 0.04 0.03
0.02 0.04 0.05 0.06 0.05 0.04 0.04 0.04 0.04 0.04 0.03 0.03 0.03 0.03 0.02 0.03 0.02 0.02 0.02 0.02 0.03 0.03 0.03 0.05 0.04 0.04 0.04 0.04 0.04 0.05 0.08 0.08 0.07 0.06 0.06 0.04 0.04 0.04 0.04 0.03 0.03 0.03 0.04 0.03
0.02 0.05 0.04 0.04 0.05 0.05 0.05 0.07 0.07 0.05 0.03 0.03 0.03 0.03 0.02 0.02 0.02 0.02 0.02 0.02 0.03 0.03 0.06 0.08 0.09 0.09 0.08 0.06 0.04 0.04 0.04 0.05 0.04 0.04 0.04 0.03 0.03 0.04 0.04 0.04 0.03 0.03 0.04 0.03
0.03 0.07 0.06 0.03 0.02 0.02 0.02 0.03 0.04 0.05 0.04 0.05 0.05 0.03 0.03 0.03 0.02 0.02 0.02 0.02 0.03 0.03 0.04 0.05 0.05 0.04 0.03 0.03 0.04 0.04 0.04 0.06 0.07 0.07 0.06 0.05 0.05 0.05 0.06 0.06 0.04 0.03 0.04 0.05
MSLP
1010.81 1011.61 1012.20 1012.62 1012.92 1013.18 1013.45 1013.76 1014.08 1014.36 1014.55 1014.60 1014.47 1014.20 1013.82 1013.44 1013.13 1012.96 1012.96 1013.10 1013.31 1013.49 1013.54 1013.38 1012.97 1012.35 1011.58 1010.75 1009.99 1009.37 1008.95 1008.71 1008.61 1008.55 1008.45 1008.20 1007.77 1007.13 1006.34 1005.46 1004.58 1003.80 1003.16 1002.71
1011.23 1011.79 1012.15 1012.39 1012.61 1012.90 1013.32 1013.87 1014.51 1015.12 1015.60 1015.84 1015.79 1015.46 1014.92 1014.29 1013.70 1013.26 1013.06 1013.08 1013.27 1013.51 1013.69 1013.67 1013.39 1012.84 1012.07 1011.20 1010.33 1009.60 1009.10 1008.84 1008.78 1008.85 1008.92 1008.89 1008.68 1008.24 1007.59 1006.78 1005.92 1005.10 1004.40 1003.88
1011.12 1011.40 1011.52 1011.60 1011.78 1012.15 1012.79 1013.67 1014.69 1015.69 1016.51 1016.99 1017.06 1016.71 1016.02 1015.13 1014.23 1013.49 1013.02 1012.87 1012.98 1013.25 1013.52 1013.65 1013.52 1013.10 1012.40 1011.54 1010.65 1009.85 1009.28 1008.98 1008.93 1009.07 1009.27 1009.42 1009.41 1009.16 1008.68 1008.01 1007.23 1006.45 1005.75 1005.21
1010.57 1010.58 1010.48 1010.43 1010.60 1011.11 1012.00 1013.23 1014.66 1016.08 1017.27 1018.03 1018.25 1017.90 1017.07 1015.94 1014.73 1013.66 1012.90 1012.52 1012.50 1012.74 1013.08 1013.34 1013.37 1013.11 1012.56 1011.79 1010.92 1010.12 1009.51 1009.17 1009.11 1009.26 1009.53 1009.79 1009.93 1009.85 1009.54 1009.03 1008.38 1007.69 1007.06 1006.55
1009.81 1009.56 1009.27 1009.13 1009.31 1009.96 1011.11 1012.68 1014.51 1016.33 1017.87 1018.90 1019.27 1018.95 1018.03 1016.69 1015.20 1013.82 1012.76 1012.12 1011.94 1012.10 1012.47 1012.83 1013.03 1012.96 1012.58 1011.95 1011.18 1010.43 1009.82 1009.45 1009.34 1009.47 1009.75 1010.04 1010.26 1010.30 1010.12 1009.75 1009.24 1008.67 1008.14 1007.69
1009.08 1008.62 1008.17 1007.96 1008.17 1008.94 1010.30 1012.15 1014.29 1016.43 1018.27 1019.53 1020.05 1019.79 1018.81 1017.33 1015.62 1013.99 1012.66 1011.79 1011.43 1011.50 1011.85 1012.29 1012.63 1012.73 1012.54 1012.09 1011.47 1010.80 1010.22 1009.83 1009.68 1009.75 1009.97 1010.25 1010.46 1010.54 1010.44 1010.17 1009.77 1009.31 1008.87 1008.50
1008.61 1007.98 1007.43 1007.16 1007.38 1008.22 1009.70 1011.72 1014.06 1016.40 1018.44 1019.87 1020.51 1020.32 1019.35 1017.80 1015.98 1014.18 1012.67 1011.62 1011.10 1011.07 1011.38 1011.85 1012.29 1012.55 1012.54 1012.27 1011.80 1011.25 1010.73 1010.34 1010.15 1010.14 1010.28 1010.47 1010.63 1010.68 1010.59 1010.35 1010.01 1009.62 1009.25 1008.94
1008.51 1007.79 1007.17 1006.86 1007.07 1007.91 1009.40 1011.46 1013.84 1016.24 1018.34 1019.86 1020.60 1020.48 1019.58 1018.07 1016.25 1014.41 1012.83 1011.68 1011.05 1010.93 1011.18 1011.65 1012.14 1012.50 1012.63 1012.52 1012.21 1011.77 1011.33 1010.97 1010.74 1010.66 1010.69 1010.77 1010.83 1010.81 1010.67 1010.42 1010.09 1009.72 1009.37 1009.10
1008.77 1008.04 1007.41 1007.08 1007.24 1008.01 1009.42 1011.36 1013.64 1015.95 1018.00 1019.51 1020.29 1020.27 1019.50 1018.13 1016.43 1014.68 1013.14 1011.99 1011.32 1011.13 1011.33 1011.75 1012.24 1012.64 1012.86 1012.86 1012.67 1012.35 1011.99 1011.66 1011.42 1011.28 1011.22 1011.19 1011.14 1011.02 1010.81 1010.50 1010.14 1009.76 1009.41 1009.12
1009.29 1008.63 1008.04 1007.72 1007.84 1008.49 1009.72 1011.45 1013.49 1015.58 1017.47 1018.89 1019.67 1019.74 1019.14 1017.98 1016.52 1014.98 1013.59 1012.53 1011.89 1011.67 1011.80 1012.16 1012.59 1012.98 1013.22 1013.28 1013.17 1012.94 1012.65 1012.37 1012.14 1011.97 1011.84 1011.73 1011.58 1011.37 1011.08 1010.72 1010.32 1009.90 1009.52 1009.21
1009.90 1009.39 1008.92 1008.65 1008.74 1009.27 1010.28 1011.72 1013.43 1015.22 1016.85 1018.12 1018.86 1019.02 1018.61 1017.72 1016.56 1015.31 1014.16 1013.27 1012.70 1012.48 1012.55 1012.81 1013.15 1013.45 1013.66 1013.72 1013.65 1013.48 1013.26 1013.03 1012.82 1012.65 1012.50 1012.33 1012.13 1011.86 1011.52 1011.12 1010.68 1010.25 1009.85 1009.51
1010.43 1010.15 1009.86 1009.71 1009.80 1010.23 1011.03 1012.16 1013.53 1014.97 1016.30 1017.37 1018.05 1018.27 1018.04 1017.44 1016.60 1015.67 1014.81 1014.11 1013.65 1013.45 1013.45 1013.60 1013.81 1014.00 1014.11 1014.14 1014.07 1013.93 1013.76 1013.58 1013.42 1013.27 1013.12 1012.94 1012.72 1012.43 1012.08 1011.67 1011.24 1010.81 1010.42 1010.08
1010.83 1010.81 1010.77 1010.78 1010.93 1011.31 1011.93 1012.79 1013.82 1014.92 1015.95 1016.81 1017.38 1017.64 1017.57 1017.22 1016.69 1016.07 1015.48 1014.98 1014.63 1014.44 1014.38 1014.41 1014.48 1014.53 1014.54 1014.50 1014.40 1014.28 1014.14 1014.01 1013.90 1013.78 1013.65 1013.49 1013.28 1013.00 1012.67 1012.29 1011.90 1011.51 1011.16 1010.86
1011.10 1011.37 1011.59 1011.81 1012.07 1012.45 1012.96 1013.60 1014.35 1015.14 1015.89 1016.53 1016.99 1017.25 1017.29 1017.14 1016.85 1016.49 1016.13 1015.80 1015.54 1015.35 1015.23 1015.15 1015.08 1015.00 1014.90 1014.79 1014.66 1014.54 1014.43 1014.34 1014.26 1014.18 1014.08 1013.94 1013.75 1013.50 1013.21 1012.89 1012.56 1012.25 1011.97 1011.74
1011.36 1011.90 1012.37 1012.79 1013.20 1013.62 1014.07 1014.56 1015.09 1015.62 1016.13 1016.57 1016.91 1017.13 1017.22 1017.19 1017.08 1016.91 1016.70 1016.49 1016.29 1016.10 1015.92 1015.74 1015.56 1015.38 1015.19 1015.02 1014.87 1014.75 1014.66 1014.60 1014.55 1014.49 1014.40 1014.28 1014.10 1013.88 1013.63 1013.37 1013.12 1012.90 1012.72 1012.58
1011.74 1012.48 1013.16 1013.77 1014.31 1014.78 1015.21 1015.60 1015.96 1016.29 1016.60 1016.86 1017.07 1017.23 1017.32 1017.35 1017.33 1017.26 1017.16 1017.02 1016.84 1016.64 1016.42 1016.17 1015.92 1015.67 1015.44 1015.24 1015.08 1014.97 1014.90 1014.85 1014.81 1014.76 1014.67 1014.53 1014.36 1014.15 1013.93 1013.72 1013.54 1013.41 1013.32 1013.29
1012.36 1013.22 1014.03 1014.75 1015.37 1015.88 1016.29 1016.61 1016.84 1017.03 1017.17 1017.28 1017.37 1017.44 1017.50 1017.54 1017.55 1017.53 1017.46 1017.35 1017.19 1016.98 1016.73 1016.46 1016.17 1015.90 1015.67 1015.47 1015.34 1015.25 1015.19 1015.16 1015.11 1015.03 1014.91 1014.75 1014.55 1014.33 1014.11 1013.93 1013.81 1013.75 1013.76 1013.81
1013.27 1014.15 1014.99 1015.74 1016.37 1016.87 1017.23 1017.47 1017.60 1017.66 1017.68 1017.67 1017.66 1017.65 1017.66 1017.67 1017.67 1017.65 1017.60 1017.50 1017.35 1017.14 1016.90 1016.63 1016.36 1016.11 1015.91 1015.76 1015.66 1015.60 1015.56 1015.52 1015.46 1015.35 1015.19 1014.98 1014.73 1014.48 1014.26 1014.09 1014.00 1013.99 1014.06 1014.18
1014.43 1015.24 1016.00 1016.68 1017.23 1017.65 1017.93 1018.07 1018.11 1018.07 1017.99 1017.89 1017.80 1017.73 1017.70 1017.68 1017.67 1017.65 1017.60 1017.51 1017.38 1017.19 1016.98 1016.75 1016.53 1016.34 1016.19 1016.09 1016.04 1016.01 1015.99 1015.94 1015.86 1015.71 1015.50 1015.24 1014.95 1014.67 1014.43 1014.26 1014.19 1014.21 1014.31 1014.48
1015.70 1016.36 1016.97 1017.50 1017.90 1018.18 1018.33 1018.37 1018.30 1018.18 1018.03 1017.87 1017.74 1017.65 1017.59 1017.57 1017.56 1017.55 1017.52 1017.45 1017.35 1017.21 1017.04 1016.87 1016.72 1016.59 1016.51 1016.46 1016.45 1016.44 1016.43 1016.37 1016.26 1016.08 1015.83 1015.53 1015.21 1014.91 1014.66 1014.50 1014.44 1014.47 1014.60 1014.78
1016.91 1017.40 1017.81 1018.13 1018.34 1018.44 1018.44 1018.35 1018.19 1018.00 1017.81 1017.64 1017.50 1017.41 1017.37 1017.37 1017.38 1017.40 1017.41 1017.38 1017.33 1017.24 1017.14 1017.04 1016.94 1016.88 1016.84 1016.83 1016.84 1016.85 1016.82 1016.75 1016.61 1016.40 1016.13 1015.82 1015.50 1015.21 1014.97 1014.83 1014.78 1014.83 1014.97 1015.15
1017.92 1018.21 1018.41 1018.51 1018.51 1018.43 1018.28 1018.07 1017.84 1017.62 1017.41 1017.25 1017.15 1017.10 1017.10 1017.15 1017.21 1017.28 1017.34 1017.37 1017.38 1017.35 1017.31 1017.26 1017.22 1017.19 1017.18 1017.18 1017.19 1017.18 1017.13 1017.03 1016.87 1016.65 1016.38 1016.08 1015.78 1015.52 1015.33 1015.22 1015.20 1015.27 1015.41 1015.58
1018.60 1018.72 1018.73 1018.63 1018.45 1018.21 1017.93 1017.64 1017.37 1017.13 1016.95 1016.84 1016.79 1016.81 1016.87 1016.98 1017.11 1017.24 1017.36 1017.45 1017.51 1017.54 1017.54 1017.54 1017.52 1017.51 1017.50 1017.49 1017.46 1017.41 1017.32 1017.19 1017.01 1016.79 1016.53 1016.27 1016.02 1015.82 1015.69 1015.63 1015.65 1015.75 1015.89 1016.04
1018.92 1018.91 1018.77 1018.52 1018.20 1017.85 1017.50 1017.17 1016.89 1016.68 1016.55 1016.50 1016.52 1016.61 1016.75 1016.93 1017.12 1017.30 1017.47 1017.61 1017.72 1017.79 1017.83 1017.85 1017.85 1017.83 1017.79 1017.74 1017.67 1017.56 1017.43 1017.26 1017.06 1016.83 1016.61 1016.39 1016.21 1016.08 1016.01 1016.02 1016.08 1016.20 1016.33 1016.46
1018.94 1018.83 1018.59 1018.24 1017.85 1017.45 1017.07 1016.76 1016.52 1016.36 1016.30 1016.32 1016.42 1016.57 1016.77 1017.00 1017.23 1017.45 1017.66 1017.83 1017.97 1018.08 1018.14 1018.17 1018.17 1018.13 1018.07 1017.97 1017.84 1017.67 1017.49 1017.28 1017.06 1016.84 1016.64 1016.47 1016.35 1016.29 1016.29 1016.34 1016.44 1016.56 1016.68 1016.77
1018.74 1018.56 1018.26 1017.88 1017.46 1017.07 1016.73 1016.46 1016.29 1016.22 1016.24 1016.33 1016.49 1016.69 1016.92 1017.17 1017.42 1017.66 1017.87 1018.06 1018.22 1018.35 1018.43 1018.47 1018.47 1018.42 1018.33 1018.19 1018.01 1017.80 1017.57 1017.33 1017.09 1016.87 1016.69 1016.56 1016.49 1016.47 1016.51 1016.59 1016.70 1016.81 1016.90 1016.95
Thickness
5834 5817 5805 5812 5819 5815 5810 5802 5800 5813 5828 5817 5807 5805 5812 5818 5816 5810 5806 5806 5803 5802 5805 5805 5804 5803 5800 5796 5793 5792 5790 5789 5787 5784 5780 5777 5775 5775 5775 5775 5775 5774 5773 5771
5815 5809 5827 5835 5831 5823 5814 5802 5802 5813 5825 5816 5803 5801 5811 5815 5813 5813 5810 5806 5804 5801 5800 5800 5800 5799 5797 5793 5792 5790 5789 5788 5786 5783 5781 5778 5775 5773 5773 5773 5772 5771 5770 5769
5807 5822 5841 5835 5827 5818 5815 5807 5806 5806 5815 5813 5800 5788 5797 5807 5812 5812 5811 5809 5806 5804 5800 5797 5796 5796 5795 5793 5791 5791 5788 5787 5785 5783 5780 5777 5773 5771 5768 5768 5767 5767 5767 5766
5817 5836 5836 5828 5826 5824 5809 5828 5825 5816 5797 5783 5791 5763 5785 5797 5799 5804 5806 5806 5804 5805 5801 5797 5795 5794 5794 5794 5793 5790 5788 5786 5784 5782 5777 5773 5768 5764 5764 5764 5764 5764 5764 5762
5814 5832 5831 5825 5833 5835 5825 5838 5828 5818 5797 5781 5783 5766 5773 5789 5787 5796 5804 5807 5806 5806 5803 5799 5797 5797 5796 5795 5792 5790 5787 5784 5782 5780 5776 5772 5768 5765 5764 5762 5760 5759 5759 5759
5825 5842 5842 5840 5848 5848 5842 5829 5816 5801 5784 5762 5775 5765 5764 5781 5791 5797 5803 5807 5807 5806 5805 5801 5799 5798 5796 5794 5791 5788 5784 5781 5780 5777 5774 5771 5766 5763 5760 5758 5755 5754 5754 5753
5811 5828 5845 5850 5833 5837 5831 5797 5769 5763 5752 5755 5777 5768 5772 5800 5808 5807 5805 5804 5805 5805 5802 5798 5796 5794 5793 5791 5788 5785 5782 5778 5777 5774 5772 5769 5766 5762 5758 5755 5752 5750 5748 5748
5790 5796 5830 5842 5833 5823 5822 5799 5765 5751 5746 5755 5769 5764 5783 5809 5814 5812 5808 5805 5804 5802 5800 5798 5797 5794 5792 5790 5787 5783 5779 5776 5773 5771 5769 5767 5764 5760 5757 5754 5751 5749 5746 5745
5791 5798 5836 5847 5850 5837 5816 5802 5801 5772 5762 5751 5757 5770 5787 5805 5804 5804 5802 5800 5799 5799 5799 5798 5796 5793 5789 5786 5784 5782 5778 5774 5771 5768 5765 5763 5760 5757 5754 5752 5749 5746 5744 5743
5811 5798 5821 5840 5845 5840 5830 5815 5788 5768 5749 5741 5751 5758 5764 5782 5788 5794 5795 5795 5795 5797 5797 5796 5794 5790 5787 5784 5782 5779 5775 5770 5768 5766 5763 5760 5756 5754 5751 5748 5744 5742 5740 5738
5817 5796 5804 5818 5816 5814 5816 5805 5788 5768 5761 5742 5734 5752 5792 5790 5793 5793 5794 5795 5794 5794 5792 5791 5789 5786 5785 5781 5778 5774 5771 5768 5764 5761 5758 5754 5751 5749 5747 5744 5741 5738 5736 5733
5816 5793 5784 5802 5823 5832 5821 5807 5788 5765 5757 5752 5741 5756 5806 5800 5798 5796 5794 5793 5791 5790 5788 5787 5784 5782 5779 5776 5773 5770 5767 5764 5761 5757 5753 5750 5747 5745 5741 5738 5736 5734 5731 5729
5814 5788 5768 5775 5791 5810 5809 5808 5798 5781 5762 5750 5742 5759 5799 5797 5794 5795 5793 5789 5787 5786 5784 5782 5779 5776 5774 5771 5768 5765 5762 5759 5755 5751 5747 5744 5742 5739 5735 5733 5731 5728 5725 5723
5819 5786 5772 5765 5773 5790 5794 5801 5800 5783 5758 5752 5758 5766 5781 5785 5786 5789 5790 5787 5784 5782 5779 5775 5772 5770 5768 5765 5761 5759 5756 5754 5750 5746 5741 5737 5734 5732 5729 5727 5724 5722 5719 5717
5806 5784 5788 5789 5797 5800 5797 5798 5798 5788 5777 5766 5769 5770 5779 5785 5787 5787 5786 5783 5779 5776 5773 5770 5767 5764 5762 5758 5755 5753 5751 5748 5745 5739 5734 5731 5728 5726 5724 5721 5718 5715 5713 5711
5792 5781 5782 5781 5793 5793 5789 5794 5795 5791 5788 5780 5776 5773 5788 5789 5786 5782 5780 5778 5773 5771 5770 5768 5765 5761 5757 5753 5749 5746 5744 5742 5738 5733 5729 5726 5723 5720 5718 5715 5712 5709 5706 5704
5778 5771 5761 5758 5776 5778 5765 5782 5786 5784 5786 5780 5768 5774 5783 5779 5779 5777 5776 5775 5770 5768 5766 5762 5760 5757 5754 5749 5745 5741 5739 5736 5731 5728 5724 5721 5718 5715 5712 5710 5705 5702 5700 5697
5771 5761 5749 5747 5755 5741 5763 5790 5792 5783 5780 5783 5782 5782 5781 5779 5778 5777 5776 5772 5768 5765 5762 5760 5757 5753 5750 5747 5742 5738 5734 5730 5726 5722 5718 5715 5712 5709 5706 5702 5698 5696 5694 5690
5774 5759 5742 5732 5731 5740 5763 5781 5782 5771 5764 5778 5776 5775 5775 5775 5770 5765 5771 5771 5767 5764 5761 5758 5755 5750 5745 5741 5737 5733 5727 5724 5720 5716 5712 5710 5706 5703 5699 5696 5693 5690 5687 5684
5765 5758 5741 5729 5724 5721 5748 5777 5788 5773 5748 5770 5772 5769 5768 5765 5747 5750 5764 5766 5763 5760 5757 5753 5749 5744 5738 5734 5731 5726 5720 5717 5714 5712 5709 5706 5702 5698 5694 5691 5688 5686 5682 5678
5739 5736 5730 5723 5720 5728 5756 5772 5775 5742 5741 5765 5768 5766 5762 5755 5753 5756 5759 5758 5756 5753 5750 5748 5742 5737 5732 5729 5726 5719 5714 5711 5710 5708 5704 5700 5696 5693 5690 5686 5683 5680 5677 5672
5722 5717 5716 5715 5710 5719 5755 5759 5749 5747 5759 5761 5759 5758 5756 5753 5754 5754 5751 5749 5747 5744 5741 5739 5733 5728 5727 5724 5719 5713 5709 5707 5705 5702 5698 5694 5691 5688 5686 5681 5677 5674 5670 5666
5716 5716 5714 5715 5716 5733 5746 5748 5753 5754 5753 5753 5751 5751 5750 5746 5743 5743 5742 5740 5738 5735 5732 5730 5726 5722 5719 5717 5714 5708 5705 5703 5699 5695 5691 5688 5686 5683 5680 5675 5671 5667 5664 5660
5713 5719 5714 5711 5718 5729 5738 5744 5747 5749 5748 5749 5748 5745 5744 5738 5735 5734 5734 5732 5729 5727 5724 5721 5718 5714 5711 5710 5708 5705 5702 5699 5695 5690 5686 5684 5680 5676 5673 5670 5666 5662 5658 5654
5702 5706 5700 5700 5710 5719 5726 5732 5736 5739 5741 5741 5741 5740 5737 5733 5729 5727 5725 5724 5722 5720 5718 5715 5711 5707 5705 5704 5701 5699 5697 5693 5688 5684 5681 5677 5674 5671 5666 5663 5660 5658 5656 5653
5694 5694 5691 5690 5701 5704 5710 5721 5727 5728 5728 5730 5730 5728 5728 5727 5723 5721 5718 5717 5715 5713 5710 5707 5704 5701 5699 5698 5695 5693 5690 5687 5682 5677 5673 5670 5667 5664 5660 5656 5653 5652 5651 5649